Weather in Yadrino

Russia / Amur Oblast     48°58′28″N   131°01′09″E
temp.,
°C
wind,
m/s
gust,
m/s
humid.,
%
clouds,
%
prec.,
mm/h
press.,
hPa
HPBL,
m
14 april, wed
wed1400:00−5wnw5115516 0.0 10051344
03:00−6wnw5115613 0.0 10051105
06:00−7wnw5105555 0.0 10061174
09:00−3wnw61038100 0.0 10052167
12:00−1wnw61036100 0.0 10052576
15:00−1nw51037100 0.1 10052491
18:00−1nw4123815 0.0 10062312
21:00−5nnw11480 0.0 100915
15 april, thu
thu1500:00−6wsw11505 0.0 101011
03:00−7wsw015427 0.0 101110
06:00−7se11514 0.0 101111
09:00+2wnw122641 0.0 1011668
12:00+6wnw242239 0.0 10101520
15:00+7wnw232499 0.0 10091642
18:00+5ne223594 0.0 100926
21:00+1e3352100 0.0 101153
16 april, fri
fri1600:00+2e51158100 0.4 1010411
03:00+2ese81761100 0.5 1008657
06:00+2ese91950100 0.0 1006613
09:00+5ese8164999 0.0 1006650
12:00+9ese8124793 0.0 10051193
15:00+10se71555100 0.0 10031956
18:00+9se51460100 0.2 10031641
21:00+5se41176100 0.8 1006692
17 april, sat
sat1700:00+4e4977100 0.1 1005599
03:00+3e3978100 0.1 1005467
06:00+3e1479100 0.0 1006174
09:00+7ese345895 0.0 10081110
12:00+9e2347100 0.0 10071780
15:00+10nw225099 0.2 10081298
18:00+9e0157100 0.3 1008494
21:00+5ese118164 0.3 101112
18 april, sun
sun1800:00+3e119130 0.0 101110
03:00+2nw11945 0.0 101110
06:00+1w129967 0.0 101261
09:00+6w247753 0.0 1011575
12:00+12nw344016 0.0 10091724
15:00+13nw44295 0.0 10062010
18:00+12nw36313 0.0 1006693
21:00+5nnw22484 0.0 100815